Home   Weather   Baltimore   Past weeks

Flag for USA Past Weather in Baltimore, Maryland, USA — Yesterday and Last 2 Weeks

Now
44 °F

Overcast.


Feels Like: 38 °F
Forecast: 36 / 49 °F
Wind: 12 mph from West

Location: Baltimore-Washington International Airport

Current Time: Dec 2, 2016 at 7:31:05 pm

Latest Report: Dec 2, 2016 at 6:54 pm


Visibility: 10 mi

Pressure: 30.09 "Hg

Humidity: 53%

Dew Point: 28 °F

Location of BaltimoreLocation

Past Weather in Baltimore — Graph

°F

Baltimore Temperature Yesterday

Maximum temperature yesterday: 61 °F (at 12:54 am)
Minimum temperature yesterday: 44 °F (at 11:54 pm)
Average temperature yesterday: 51 °F

High & Low Weather Summary for the Past Weeks

 TemperatureHumidityPressure
High72 °F (Nov 18, 1:54 pm)100% (Nov 19, 2:54 am)30.37 "Hg (Nov 19, 2:54 am)
Low24 °F (Nov 23, 6:54 am)26% (Nov 23, 2:54 pm)29.53 "Hg (Dec 1, 12:54 am)
Average45 °F67%30.04 "Hg
* Reported Nov 17 5:54 pm — Dec 2 5:54 pm, Baltimore, Weather by CustomWeather, © 2016

Note: Actual official high and low records may vary slightly from our data, if they occured in-between our weather recording intervals... More about our weather records

Advertising

Baltimore Weather History for the Previous 24 Hours

Scroll right to see more
 ConditionsComfort  
Time TempWeatherWind HumidityBarometerVisibility
5:54 pm
Fri, Dec 2
44 °FPassing clouds.10 mph55%30.06 "Hg10 mi
4:54 pm44 °FPassing clouds.16 mph55%30.05 "Hg10 mi
3:54 pm46 °FScattered clouds.22 mph50%30.04 "Hg10 mi
2:54 pm48 °FScattered clouds.21 mph48%30.01 "Hg10 mi
1:54 pm48 °FScattered clouds.18 mph46%30.01 "Hg10 mi
12:54 pm49 °FScattered clouds.21 mph44%30.01 "Hg10 mi
11:54 am49 °FScattered clouds.17 mph44%30.03 "Hg10 mi
10:54 am48 °FPartly sunny.20 mph46%30.04 "Hg10 mi
9:54 am47 °FPartly sunny.23 mph48%30.04 "Hg10 mi
8:54 am45 °FBroken clouds.16 mph51%30.04 "Hg10 mi
7:54 am43 °FPartly sunny.10 mph56%30.03 "Hg10 mi
6:54 am41 °FPartly cloudy.10 mph58%30.01 "Hg10 mi
5:54 am42 °FPassing clouds.12 mph53%30.00 "Hg10 mi
4:54 am42 °FPassing clouds.9 mph53%29.99 "Hg10 mi
3:54 am40 °FPassing clouds.8 mph60%29.99 "Hg10 mi
2:54 am41 °FPassing clouds.6 mph60%29.99 "Hg10 mi
1:54 am43 °FPassing clouds.8 mph58%29.98 "Hg10 mi
12:54 am44 °FPassing clouds.9 mph60%29.97 "Hg10 mi
11:54 pm
Thu, Dec 1
44 °FPassing clouds.6 mph60%29.96 "Hg10 mi
10:54 pm45 °FPassing clouds.9 mph58%29.94 "Hg10 mi
9:54 pm45 °FPassing clouds.12 mph58%29.93 "Hg10 mi
8:54 pm45 °FPassing clouds.12 mph58%29.91 "Hg10 mi
7:54 pm47 °FPassing clouds.15 mph54%29.91 "Hg10 mi
Weather by CustomWeather, © 2016

See weather overviewHow to use our weather pages